カタログに戻る

STARLINK-5491

運用中通信VLEO
NORAD 55332·PAYLOAD·🇺🇸 United States

打ち上げ Jan 26, 2023 から Cape Canaveral Space Force Station

Loading…

次のパス (今後24時間)

TLE

最新Source: CelesTrak SupGP

元期: Sep 15, 2026, 01:51 UTC

1 55332C 23013B   26258.07756944  .00031586  00000+0  11440-2 0  2584
2 55332  43.0004 299.4492 0001474 260.1658 113.8065 15.27562028    17

AllMySatでSTARLINK-5491をリアルタイム追跡

Download on the App Store